Lake Hood, AK

7:03 PM AKDT on October 17, 2017 (GMT -0800)
Lake Hood

Weather History for PALH - September, 2012

Change the Weather History Date:

Tuesday, September 18, 2012

  Actual Average Record
Temperature  
Mean Temperature 53 °F -  
Max Temperature 57 °F 52 °F 62 °F (2008)
Min Temperature 51 °F 39 °F 30 °F (2004)
Degree Days  
Heating Degree Days 12    
Growing Degree Days 3 (Base 50)    
Moisture  
Dew Point 36 °F    
Average Humidity 51    
Maximum Humidity 61    
Minimum Humidity 42    
Precipitation  
Precipitation 0.00 in - - ()
Sea Level Pressure  
Sea Level Pressure 29.81 in    
Wind  
Wind Speed 11 mph (SSE)    
Max Wind Speed 18 mph    
Max Gust Speed 37 mph    
Visibility 10 miles    
Events      
Averages and records for this station are not official NWS values.
T = Trace of Precipitation, MM = Missing Value Source: NWS Daily Summary

Daily Weather History Graph

Daily Weather History Graph

Search for Another Location

Airport or City:

Trip Planner

Search our weather history database for the weather conditions in past years. The results will help you decide how hot, cold, wet, or windy it might be!

Date:

Astronomy

Sep. 18, 2012 Rise Set
Actual Time 7:35 AM AKDT 8:10 PM AKDT
Civil Twilight 6:52 AM AKDT 8:53 PM AKDT
Nautical Twilight 5:58 AM AKDT 9:46 PM AKDT
Astronomical Twilight 4:58 AM AKDT 10:45 PM AKDT
Moon 12:01 PM AKDT 8:21 PM AKDT
Length of Visible Light 14h 01m
Length of Day
12h 34m
Waxing Crescent, 10% of the Moon is Illuminated
Sep 18
Waxing Crescent
Sep 22
First Quarter
Sep 29
Full
Oct 7
Last Quarter
Oct 15
New

Hourly Weather History & Observations

Time (AKDT) Temp. Dew Point Humidity Pressure Visibility Wind Dir Wind Speed Gust Speed Precip Events Conditions
12:53 AM 54.0 °F 34.0 °F 47% 29.90 in 10.0 mi SSE 12.7 mph 32.2 mph N/A   Overcast
1:53 AM 55.0 °F 33.1 °F 43% 29.88 in 10.0 mi Variable 6.9 mph 25.3 mph N/A   Overcast
2:53 AM 55.0 °F 34.0 °F 45% 29.86 in 10.0 mi SSE 10.4 mph 31.1 mph N/A   Overcast
3:53 AM 52.0 °F 36.0 °F 54% 29.85 in 10.0 mi SSW 6.9 mph 20.7 mph N/A   Overcast
4:53 AM 51.1 °F 37.0 °F 59% 29.83 in 10.0 mi South 11.5 mph 20.7 mph N/A   Overcast
5:53 AM 52.0 °F 37.0 °F 57% 29.83 in 10.0 mi South 10.4 mph 21.9 mph N/A   Overcast
6:53 AM 51.1 °F 37.9 °F 61% 29.82 in 10.0 mi South 11.5 mph 20.7 mph N/A   Overcast
7:53 AM 52.0 °F 37.0 °F 57% 29.79 in 10.0 mi South 9.2 mph 17.3 mph N/A   Overcast
8:53 AM 52.0 °F 37.0 °F 57% 29.79 in 10.0 mi South 8.1 mph - N/A   Overcast
9:53 AM 54.0 °F 35.1 °F 49% 29.77 in 10.0 mi SSE 12.7 mph 20.7 mph N/A   Overcast
10:53 AM 53.1 °F 36.0 °F 52% 29.76 in 10.0 mi SSE 15.0 mph 26.5 mph N/A   Overcast
11:53 AM 53.1 °F 37.0 °F 55% 29.77 in 10.0 mi SSE 15.0 mph 27.6 mph N/A   Overcast
12:53 PM 53.1 °F 37.9 °F 57% 29.78 in 10.0 mi SSE 8.1 mph 25.3 mph N/A   Overcast
1:53 PM 53.1 °F 37.0 °F 55% 29.79 in 10.0 mi SE 8.1 mph 26.5 mph 0.00 in   Overcast
2:53 PM 55.0 °F 36.0 °F 49% 29.77 in 10.0 mi SE 12.7 mph 25.3 mph N/A   Overcast
3:53 PM 55.0 °F 35.1 °F 47% 29.79 in 10.0 mi SSE 13.8 mph 25.3 mph N/A   Overcast
4:53 PM 54.0 °F 36.0 °F 51% 29.80 in 10.0 mi SE 12.7 mph 23.0 mph N/A   Overcast
5:53 PM 53.1 °F 37.0 °F 55% 29.79 in 10.0 mi SSE 17.3 mph 36.8 mph N/A   Overcast
6:53 PM 53.1 °F 36.0 °F 52% 29.79 in 10.0 mi SSE 17.3 mph 35.7 mph N/A   Overcast
7:53 PM 54.0 °F 35.1 °F 49% 29.80 in 10.0 mi SSE 16.1 mph 32.2 mph N/A   Overcast
8:53 PM 54.0 °F 35.1 °F 49% 29.80 in 10.0 mi SSE 16.1 mph 28.8 mph N/A   Overcast
9:53 PM 55.0 °F 34.0 °F 45% 29.81 in 10.0 mi SE 9.2 mph 26.5 mph N/A   Overcast
10:53 PM 55.9 °F 34.0 °F 44% 29.81 in 10.0 mi SE 18.4 mph 34.5 mph N/A   Overcast
11:53 PM 57.0 °F 34.0 °F 42% 29.81 in 10.0 mi Variable 4.6 mph 25.3 mph N/A   Overcast